Regional Weather Roundup
Issued by NWS

Home | Current Version | Previous Version | Graphics & Text | Print | Product List | Glossary On
Versions: 1 2 3 4 5 6 7 8 9 10 11 12 13 14 15 16 17 18 19 20 21 22 23 24 25 26 27 28 29 30 31 32 33 34 35 36 37 38 39 40 41 42 43 44 45 46 47 48 49 50
000
ASUS43 KMKX 270621
RWRWI

WISCONSIN REGIONAL WEATHER ROUNDUP
NATIONAL WEATHER SERVICE MILWAUKEE/SULLIVAN WI
100 AM CDT SAT MAY 27 2017

NOTE: "FAIR" INDICATES FEW OR NO CLOUDS BELOW 12,000 FEET WITH NO
SIGNIFICANT WEATHER AND/OR OBSTRUCTIONS TO VISIBILITY.

WIZ001-002-006>008-014>016-023>028-270700-
NORTHWEST WISCONSIN

CITY           SKY/WX    TMP DP  RH WIND       PRES   REMARKS
SUPERIOR ARPT  NOT AVBL
ASHLAND        CLEAR     56  54  93 SW8       29.78S
6HR MIN TEMP:  53; 6HR MAX TEMP:  72; 6HR PCP:  0.02;

HAYWARD        FOG       52  50  93 CALM      29.82S VSB 1/4
6HR MIN TEMP:  51; 6HR MAX TEMP:  70; 6HR PCP:  0.19;

SIREN          FOG       53  53  99 CALM      29.82R VSB 1/2
6HR MIN TEMP:  53; 6HR MAX TEMP:  65; 6HR PCP:  0.28;

CUMBERLAND     FOG       54  52  94 CALM      29.83S VSB 3/4
RICE LAKE      FOG       58  56  96 CALM      29.84S VSB<1/4
6HR MIN TEMP:  58; 6HR MAX TEMP:  73; 6HR PCP:  0.05;

CHETEK         FOG       57  57 100 CALM      29.83S VSB 1/2
6HR MIN TEMP:  57; 6HR MAX TEMP:  71; 6HR PCP:  0.01;

LADYSMITH      CLOUDY    60  58  95 SE5       29.86S
6HR MIN TEMP:  60; 6HR MAX TEMP:  71; 6HR PCP:  0.25;

EAU CLAIRE     CLEAR     58  55  90 S3        29.82F
6HR MIN TEMP:  58; 6HR MAX TEMP:  73;

MENOMONIE      CLOUDY    60  56  87 SW3       29.83S
6HR MIN TEMP:  61; 6HR MAX TEMP:  73;

NEW RICHMOND   CLEAR     56  47  73 W5        29.84S
6HR MIN TEMP:  56; 6HR MAX TEMP:  71;

OSCEOLA        PTCLDY    53  50  90 CALM      29.86S
6HR MIN TEMP:  53; 6HR MAX TEMP:  74;

$$

WIZ003>005-009-010-017-018-270700-
NORTH CENTRAL WISCONSIN

CITY           SKY/WX    TMP DP  RH WIND       PRES   REMARKS
MANITOWISH WTR MOCLDY    55  55 100 S5        29.84S
6HR MIN TEMP:  53; 6HR MAX TEMP:  66;

ARBOR VITAE    PTCLDY    59  55  87 S5        29.85R
6HR MIN TEMP:  56; 6HR MAX TEMP:  65;

WOODRUFF       PTCLDY    59  55  87 S5        29.85R
6HR MIN TEMP:  56; 6HR MAX TEMP:  65;

RHINELANDER    CLEAR     57  53  86 SW5       29.87R
6HR MIN TEMP:  54; 6HR MAX TEMP:  65;

EAGLE RIVER    MOCLDY    55  55 100 CALM      29.85S
6HR MIN TEMP:  54; 6HR MAX TEMP:  65;

LAND O LAKES   MOCLDY    57  56  96 CALM      29.87S
6HR MIN TEMP:  57; 6HR MAX TEMP:  64;

PHILLIPS       DRIZZLE   58  57  97 SW5       29.85S
6HR MIN TEMP:  54; 6HR MAX TEMP:  68;

TOMAHAWK       PTCLDY    53  52  96 CALM      29.87R
6HR MIN TEMP:  52; 6HR MAX TEMP:  64;

MEDFORD        CLOUDY    58  54  85 S9        29.86R
6HR MIN TEMP:  56; 6HR MAX TEMP:  67;

MERRILL        CLEAR     53  53  99 CALM      29.87R
6HR MIN TEMP:  56; 6HR MAX TEMP:  68;

$$

WIZ029-030-035-036-043>047-270700-
CENTRAL WISCONSIN

CITY           SKY/WX    TMP DP  RH WIND       PRES   REMARKS
WAUSAU         CLEAR     56  52  86 CALM      29.86R
6HR MIN TEMP:  54; 6HR MAX TEMP:  68;

MOSINEE        CLEAR     52  52 100 S6        29.88S
MARSHFIELD     CLEAR     55  51  86 SW6       29.86R
6HR MIN TEMP:  54; 6HR MAX TEMP:  69;

STEVENS POINT  CLEAR     53  52  98 CALM      29.89R
6HR MIN TEMP:  52; 6HR MAX TEMP:  67;

WAUPACA        CLEAR     56  54  91 CALM      29.88S
6HR MIN TEMP:  56; 6HR MAX TEMP:  72;

WAUTOMA        PTCLDY    52  51  97 CALM      29.89S
6HR MIN TEMP:  52; 6HR MAX TEMP:  66;

WISC RAPIDS    CLEAR     55  52  89 S5        29.88S
6HR MIN TEMP:  55; 6HR MAX TEMP:  70;

CAMP DOUGLAS   CLEAR     52  51  99 S7        29.87S
6HR MIN TEMP:  50; 6HR MAX TEMP:  69;

$$

WIZ011>013-019>022-031-037>040-048>050-270700-
NORTHEAST WISCONSIN

CITY           SKY/WX    TMP DP  RH WIND       PRES   REMARKS
ANTIGO         CLEAR     53  52  99 S3        29.87S
6HR MIN TEMP:  53; 6HR MAX TEMP:  65;

SHAWANO        CLEAR     58  54  85 CALM      29.88S
6HR MIN TEMP:  58; 6HR MAX TEMP:  71;

OCONTO         PTCLDY    53  52  97 CALM      29.87R
6HR MIN TEMP:  53; 6HR MAX TEMP:  66;

STURGEON BAY   CLOUDY    53  50  89 CALM      29.89R
6HR MIN TEMP:  53; 6HR MAX TEMP:  62; 6HR PCP:  0.01;

GREEN BAY      CLEAR     57  56  96 W5        29.87R
6HR MIN TEMP:  57; 6HR MAX TEMP:  67;

MANITOWOC      CLOUDY    51  48  89 CALM      29.88S
6HR MIN TEMP:  51; 6HR MAX TEMP:  59;

APPLETON       CLEAR     55  48  76 SW7       29.86S
CLINTONVILLE   CLEAR     55  54  94 CALM      29.87S
OSHKOSH        CLEAR     57  52  83 SW6       29.87S
6HR MIN TEMP:  54; 6HR MAX TEMP:  67;

$$

WIZ032>034-041-042-053>061-270700-
SOUTHWEST WISCONSIN

CITY           SKY/WX    TMP DP  RH WIND       PRES   REMARKS
LA CROSSE      CLOUDY    63  59  87 S5        29.86R
6HR MIN TEMP:  61; 6HR MAX TEMP:  72;

SPARTA         CLEAR     50  50 100 CALM      29.87F
6HR MIN TEMP:  50; 6HR MAX TEMP:  69;

VIROQUA        CLEAR     57  55  93 SW7       29.88S
6HR MIN TEMP:  58; 6HR MAX TEMP:  67;

BOSCOBEL       FOG       52  51  97 CALM      29.88S VSB 1/4
6HR MIN TEMP:  52; 6HR MAX TEMP:  69;

PRAIRIE DU CHI CLEAR     55  54  94 CALM      29.87S
6HR MIN TEMP:  55; 6HR MAX TEMP:  67;

PLATTEVILLE    CLEAR     56  56 100 E7        29.89S
6HR MIN TEMP:  56; 6HR MAX TEMP:  66;

$$

WIZ056-057-062-063-064-067-068-270700-
SOUTH CENTRAL WISCONSIN

CITY           SKY/WX    TMP DP  RH WIND       PRES   REMARKS
REEDSBURG      CLEAR     53  53 100 CALM      29.88S
6HR MIN TEMP:  53; 6HR MAX TEMP:  66;

BARABOO/DELLS  CLEAR     50  48  92 S3        29.89S FOG
6HR MIN TEMP:  50; 6HR MAX TEMP:  64;

LONE ROCK      FOG       52  51  97 CALM      29.88S VSB<1/4
6HR MIN TEMP:  52; 6HR MAX TEMP:  67;

MINERAL POINT  CLEAR     55  55 100 SE5       29.89S
MADISON        CLEAR     51  51 100 CALM      29.89R FOG
6HR MIN TEMP:  50; 6HR MAX TEMP:  64;

MIDDLETON        N/A     50  50 100 CALM      29.90R VSB 1
6HR MIN TEMP:  50; 6HR MAX TEMP:  65;

WATERTOWN      CLEAR     50  50 100 CALM      29.89R
6HR MIN TEMP:  49; 6HR MAX TEMP:  62;

MONROE         CLEAR     54  54 100 CALM      29.89S
JANESVILLE     FOG       52  52 100 CALM      29.89R VSB 1
$$

WIZ051-052-058>065-066-070>072-270700-
SOUTHEAST WISCONSIN

CITY           SKY/WX    TMP DP  RH WIND       PRES   REMARKS
MILWAUKEE      CLEAR     50  50 100 CALM      29.88S
6HR MIN TEMP:  50; 6HR MAX TEMP:  60;

WAUKESHA       FOG       50  50 100 CALM      29.90R VSB 1
MILWAUKEE/TIMM   N/A     52  50  93 CALM      29.89R FOG
RACINE         CLEAR     49  47  93 CALM      29.89S FOG
6HR MIN TEMP:  48; 6HR MAX TEMP:  58; 6HR PCP:  0.01;

KENOSHA        FOG       51  50  96 CALM      29.88R VSB 1/2
6HR MIN TEMP:  50; 6HR MAX TEMP:  57; 6HR PCP:  0.01;

FOND DU LAC    CLEAR     54  50  86 CALM      29.88R
6HR MIN TEMP:  53; 6HR MAX TEMP:  67;

SHEBOYGAN      PTCLDY    52  52 100 CALM      29.87S
6HR MIN TEMP:  52; 6HR MAX TEMP:  62;

WEST BEND      CLEAR     50  50 100 CALM      29.88S FOG
JUNEAU         CLEAR     53  52  95 CALM      29.90S
6HR MIN TEMP:  52; 6HR MAX TEMP:  64;

$$

LSZ147-162-270700-
LAKE SUPERIOR

STATION/POSITION TIME  TEMP    WIND        PRES    WAVE
                       AIR SEA DIR/SP/G            HT/PER
                 (UTC) (F)     (DEG/KT/KT) (MB)    (FT/S)
W MID LAKE BUOY  0550   45 37  140/  6/  8 1008.6S   0
DEVILS ISLAND    0600   45     200/  6/  7 1008.8R
PORT WING        0430   43     230/  1/  3 1008.8S
SAXON HARBOR     0540   56     190/  3/  4 1008.1S
$$

LMZ867-665-643>646-270700-
LAKE MICHIGAN

STATION/POSITION TIME  TEMP    WIND        PRES    WAVE
                       AIR SEA DIR/SP/G            HT/PER
                 (UTC) (F)     (DEG/KT/KT) (MB)    (FT/S)
CHAMBERS ISLAND  0540   56     150/  1/  3 1011.2R
N MID L


USA.gov is the U.S. government's official web portal to all federal, state and local government web resources and services.